Regional Weather Roundup
Issued by NWS Jackson, KY

Home | Current Version | Previous Version | Text Only | Print | Product List | Glossary On
Versions: 1 2 3 4 5 6 7 8 9 10 11 12 13 14 15 16 17 18 19 20 21 22 23 24 25 26 27
000
ASUS43 KJKL 290110
RWRJKL

EAST KENTUCKY HOURLY WEATHER ROUNDUP
NATIONAL WEATHER SERVICE JACKSON KY
900 PM EDT SUN AUG 28 2016

NOTE: "FAIR" INDICATES FEW OR NO CLOUDS BELOW 12,000 FEET WITH
NO SIGNIFICANT WEATHER AND/OR OBSTRUCTIONS TO VISIBILITY.

* THESE REPORTS ARE NOT UNDER NWS QUALITY CONTROL AND MAY NOT
  REPORT WEATHER SUCH AS PRECIPITATION AND FOG.

KYZ079-080-083-085-087-088-110-112-115-119-120-290200
...EASTERN KENTUCKY...

CITY           SKY/WX    TMP DP  RH WIND       PRES   REMARKS
JACKSON        CLOUDY    73  68  84 CALM      30.16F
LONDON         CLOUDY    72  66  81 E3        30.17F
SOMERSET*      MOCLDY    70  70 100 CALM      30.17F
MONTICELLO*    RAIN     N/A N/A N/A N10       30.19R
WILLIAMSBURG*  CLOUDY    72  70  94 S3        30.18S
MIDDLESBORO*   MOCLDY    73  71  94 CALM      30.17S
HARLAN APT*    MOCLDY    73  70  88 CALM      30.19S
PIKE CO APT*     N/A     77  75  93 NW3       30.18R
BIG SANDY APT* PTCLDY    78  74  88 CALM      30.16S
MOREHEAD APT*  CLOUDY    70  68  94 N6        30.18F
$$

KYZ035-036-041-042-044-050-067-078-099-290200
...CENTRAL KENTUCKY...

CITY           SKY/WX    TMP DP  RH WIND       PRES   REMARKS
MT STERLING*   MOCLDY    72  70  94 NE6       30.19R
FLEMING/MASON* CLOUDY    73  69  89 CALM      30.21R
DANVILLE*      MOCLDY    70  64  83 CALM      30.17R
LEXINGTON      MOCLDY    75  65  70 NE5       30.17R
FRANKFORT      MOCLDY    74  69  85 CALM      30.16R
LOUISVILLE     MOCLDY    79  69  71 NE3       30.14S
LEBANON*         N/A     72  70  94 SE7       30.15S
GLASGOW*       PTCLDY    75  67  75 E9        30.16F
BOWLING GREEN  PTCLDY    80  71  74 E15       30.14R
$$

KYZ091>093-OHZ055-061-077-WVZ005-015-034-035-042-290200
...SOUTHERN OHIO/WEST VIRGINIA...

CITY           SKY/WX    TMP DP  RH WIND       PRES   REMARKS
COVINGTON      TSTM      72  71  97 SE9       30.20R
COLUMBUS       CLOUDY    73  67  81 N7        30.16F
DAYTON         CLOUDY    73  66  78 SE7G18    30.20S THUNDER
WILMINGTON     CLOUDY    74  67  78 NW12      30.21R THUNDER
HUNTINGTON     MOCLDY    76  68  76 NW6       30.14S
CHARLESTON     MOCLDY    79  71  76 E3        30.15R
PINEVILLE*     CLEAR     73  68  84 MISG      30.24R
BECKLEY        CLEAR     74  70  87 E3        30.24R
BLUEFIELD      CLEAR     74  61  63 SE6       30.28R
LOGAN CO APT*    N/A     70  68  94 CALM      30.18R
$$

VAZ002-007-008-TNZ017-027-036-066-071-290200
...SOUTHWEST VIRGINIA/EAST TENNESSEE...

CITY           SKY/WX    TMP DP  RH WIND       PRES   REMARKS
WISE*          PTCLDY    75  64  69 CALM      30.26S
JONESVILLE*      N/A     73  72  94 CALM      30.19R
ABINGDON*      CLEAR     79  66  63 E5        30.21R
BRISTOL        MOCLDY    77  71  82 CALM      30.16R
MORRISTOWN*    PTCLDY    77  70  78 CALM      30.13R
SEVIERVILLE*   CLEAR     73  70  88 W3        30.12R
KNOXVILLE      CLOUDY    77  67  71 NE6       30.10S
OAK RIDGE      MOCLDY    74  69  85 CALM      30.14R
CROSSVILLE     TSTM      70  67  90 W6        30.20F
NASHVILLE      PTCLDY    81  72  74 E3        30.11R
$$

...KEY TO REMARKS...
VSB - VISIBILITY IN MILES
WCI - WIND CHILL INDEX
HX  - HEAT INDEX

$$




USA.gov is the U.S. government's official web portal to all federal, state and local government web resources and services.